When you browse on this site, cookies collect data to enhance your experience and personalize the content and advertising you see.
Visit our Privacy Policy to learn more. By continuing to use the site, you agree to this use of cookies and data.
  • In Slovakia
  • List of Countries
  • For 7 days
  • Water Temperature
  • Weather Map
  • Weather Widgets
  • user-avatar
    Login

    Hourly Weather Flores

    Today, 23 January, Thursday

    Time Temperature Precipitation Wind Pressure Humidity
    00:00 +23°C° 0 mm 1 mps 701 mmHg 90%
    01:00 +23°C° 0 mm 1 mps 701 mmHg 89%
    02:00 +23°C° 0 mm 1 mps 700 mmHg 89%
    03:00 +23°C° 0 mm 1 mps 700 mmHg 88%
    04:00 +23°C° 0 mm 1 mps 700 mmHg 87%
    05:00 +22°C° 0 mm 1 mps 700 mmHg 87%
    06:00 +24°C° 0 mm 1 mps 701 mmHg 83%
    07:00 +23°C° 0 mm 0 mps 701 mmHg 79%
    08:00 +24°C° 0 mm 0 mps 702 mmHg 75%
    09:00 +26°C° 0 mm 0 mps 702 mmHg 71%
    10:00 +29°C° 0 mm 1 mps 702 mmHg 67%
    11:00 +30°C° 0 mm 1 mps 702 mmHg 63%
    12:00 +29°C° 0.3 mm 1 mps 701 mmHg 66%
    13:00 +29°C° 0.3 mm 1 mps 701 mmHg 69%
    14:00 +28°C° 0.3 mm 1 mps 700 mmHg 73%
    15:00 +28°C° 0.5 mm 1 mps 700 mmHg 74%
    16:00 +27°C° 0.5 mm 1 mps 700 mmHg 75%
    17:00 +27°C° 0.5 mm 1 mps 699 mmHg 77%
    18:00 +26°C° 0 mm 1 mps 700 mmHg 81%
    19:00 +23°C° 0 mm 0 mps 700 mmHg 86%
    20:00 +22°C° 0 mm 0 mps 700 mmHg 91%
    21:00 +22°C° 0 mm 0 mps 700 mmHg 91%
    22:00 +23°C° 0 mm 1 mps 701 mmHg 91%
    23:00 +23°C° 0 mm 1 mps 701 mmHg 91%

    Tomorrow, 24 January, Friday

    Time Temperature Precipitation Wind Pressure Humidity
    00:00 +23°C° 0 mm 1 mps 701 mmHg 91%
    01:00 +23°C° 0 mm 1 mps 700 mmHg 90%
    02:00 +23°C° 0 mm 1 mps 700 mmHg 89%
    03:00 +23°C° 0 mm 1 mps 700 mmHg 89%
    04:00 +22°C° 0 mm 1 mps 700 mmHg 89%
    05:00 +22°C° 0 mm 1 mps 700 mmHg 88%
    06:00 +22°C° 0 mm 0 mps 701 mmHg 84%
    07:00 +23°C° 0 mm 0 mps 701 mmHg 79%
    08:00 +24°C° 0 mm 0 mps 702 mmHg 75%
    09:00 +26°C° 0 mm 0 mps 702 mmHg 70%
    10:00 +29°C° 0 mm 1 mps 702 mmHg 65%
    11:00 +30°C° 0 mm 1 mps 702 mmHg 60%
    12:00 +30°C° 0.3 mm 1 mps 702 mmHg 63%
    13:00 +29°C° 0.3 mm 1 mps 701 mmHg 66%
    14:00 +29°C° 0.3 mm 1 mps 700 mmHg 69%
    15:00 +28°C° 0.3 mm 1 mps 700 mmHg 72%
    16:00 +28°C° 0.3 mm 1 mps 700 mmHg 75%
    17:00 +25°C° 0.3 mm 0 mps 699 mmHg 78%
    18:00 +24°C° 0 mm 0 mps 700 mmHg 82%
    19:00 +23°C° 0 mm 0 mps 700 mmHg 87%
    20:00 +22°C° 0 mm 0 mps 700 mmHg 91%
    21:00 +22°C° 0 mm 0 mps 701 mmHg 91%
    22:00 +22°C° 0 mm 0 mps 701 mmHg 91%
    23:00 +22°C° 0 mm 0 mps 701 mmHg 91%

    Day after tomorrow, 25 January, Saturday

    Time Temperature Precipitation Wind Pressure Humidity
    00:00 +23°C° 0 mm 1 mps 701 mmHg 91%
    01:00 +23°C° 0 mm 1 mps 701 mmHg 91%
    02:00 +23°C° 0 mm 1 mps 700 mmHg 90%
    03:00 +23°C° 0 mm 1 mps 700 mmHg 90%
    04:00 +22°C° 0 mm 1 mps 700 mmHg 89%
    05:00 +22°C° 0 mm 1 mps 700 mmHg 88%
    06:00 +24°C° 0 mm 1 mps 701 mmHg 84%
    07:00 +23°C° 0 mm 0 mps 701 mmHg 79%
    08:00 +25°C° 0 mm 0 mps 702 mmHg 74%
    09:00 +26°C° 0 mm 0 mps 702 mmHg 70%
    10:00 +29°C° 0 mm 1 mps 702 mmHg 65%
    11:00 +30°C° 0 mm 1 mps 702 mmHg 60%
    12:00 +30°C° 0 mm 1 mps 702 mmHg 62%
    13:00 +30°C° 0 mm 1 mps 701 mmHg 63%
    14:00 +30°C° 0 mm 2 mps 701 mmHg 64%
    15:00 +29°C° 0.3 mm 2 mps 700 mmHg 69%
    16:00 +28°C° 0.3 mm 1 mps 700 mmHg 73%
    17:00 +28°C° 0.3 mm 1 mps 700 mmHg 78%
    18:00 +26°C° 0.2 mm 1 mps 700 mmHg 82%
    19:00 +25°C° 0.2 mm 1 mps 700 mmHg 86%
    20:00 +22°C° 0.2 mm 0 mps 701 mmHg 90%
    21:00 +22°C° 0 mm 0 mps 701 mmHg 91%
    22:00 +22°C° 0 mm 0 mps 701 mmHg 91%
    23:00 +24°C° 0 mm 1 mps 701 mmHg 92%

    26 January, Sunday

    Time Temperature Precipitation Wind Pressure Humidity
    00:00 +24°C° 0 mm 1 mps 701 mmHg 92%
    01:00 +23°C° 0 mm 1 mps 700 mmHg 92%
    02:00 +23°C° 0 mm 1 mps 700 mmHg 92%
    03:00 +23°C° 0 mm 1 mps 700 mmHg 92%
    04:00 +23°C° 0 mm 1 mps 700 mmHg 91%
    05:00 +21°C° 0 mm 0 mps 700 mmHg 91%
    06:00 +22°C° 0 mm 0 mps 700 mmHg 87%
    07:00 +23°C° 0 mm 0 mps 701 mmHg 82%
    08:00 +24°C° 0 mm 0 mps 701 mmHg 78%
    09:00 +26°C° 0 mm 0 mps 701 mmHg 72%
    10:00 +29°C° 0 mm 1 mps 701 mmHg 67%
    11:00 +31°C° 0 mm 1 mps 702 mmHg 61%
    12:00 +30°C° 0.1 mm 1 mps 701 mmHg 63%
    13:00 +30°C° 0.1 mm 2 mps 700 mmHg 65%
    14:00 +30°C° 0.1 mm 2 mps 700 mmHg 67%
    15:00 +29°C° 0.3 mm 2 mps 699 mmHg 72%
    16:00 +28°C° 0.3 mm 1 mps 699 mmHg 77%
    17:00 +27°C° 0.3 mm 1 mps 699 mmHg 81%
    18:00 +26°C° 0.2 mm 1 mps 699 mmHg 85%
    19:00 +23°C° 0.2 mm 0 mps 700 mmHg 89%
    20:00 +23°C° 0.2 mm 0 mps 700 mmHg 92%
    21:00 +22°C° 0 mm 0 mps 700 mmHg 92%
    22:00 +22°C° 0 mm 0 mps 701 mmHg 93%
    23:00 +22°C° 0 mm 0 mps 701 mmHg 93%

    27 January, Monday

    Time Temperature Precipitation Wind Pressure Humidity
    00:00 +22°C° 0 mm 0 mps 701 mmHg 93%
    01:00 +22°C° 0 mm 0 mps 700 mmHg 93%
    02:00 +22°C° 0 mm 0 mps 700 mmHg 93%
    03:00 +22°C° 0 mm 0 mps 700 mmHg 92%
    04:00 +21°C° 0 mm 0 mps 700 mmHg 92%
    05:00 +21°C° 0 mm 0 mps 700 mmHg 91%
    06:00 +22°C° 0 mm 0 mps 700 mmHg 87%
    07:00 +24°C° 0 mm 0 mps 701 mmHg 82%
    08:00 +25°C° 0 mm 0 mps 701 mmHg 77%
    09:00 +28°C° 0 mm 1 mps 702 mmHg 73%
    10:00 +29°C° 0 mm 1 mps 702 mmHg 68%
    11:00 +30°C° 0 mm 2 mps 702 mmHg 63%
    12:00 +30°C° 0.7 mm 2 mps 701 mmHg 68%
    13:00 +29°C° 0.7 mm 2 mps 700 mmHg 72%
    14:00 +29°C° 0.7 mm 2 mps 700 mmHg 77%
    15:00 +28°C° 0.6 mm 2 mps 699 mmHg 78%
    16:00 +28°C° 0.6 mm 1 mps 699 mmHg 80%
    17:00 +27°C° 0.6 mm 1 mps 699 mmHg 82%
    18:00 +26°C° 0.1 mm 1 mps 699 mmHg 86%
    19:00 +25°C° 0.1 mm 1 mps 700 mmHg 90%
    20:00 +24°C° 0.1 mm 1 mps 700 mmHg 94%
    21:00 +24°C° 0 mm 1 mps 700 mmHg 93%
    22:00 +24°C° 0 mm 1 mps 700 mmHg 93%
    23:00 +24°C° 0 mm 1 mps 701 mmHg 93%

    28 January, Tuesday

    Time Temperature Precipitation Wind Pressure Humidity
    00:00 +23°C° 0 mm 1 mps 700 mmHg 92%
    01:00 +23°C° 0 mm 1 mps 700 mmHg 91%
    02:00 +23°C° 0 mm 1 mps 699 mmHg 90%
    03:00 +23°C° 0 mm 1 mps 699 mmHg 90%
    04:00 +23°C° 0 mm 1 mps 699 mmHg 89%
    05:00 +23°C° 0 mm 1 mps 699 mmHg 88%
    06:00 +24°C° 0 mm 1 mps 700 mmHg 84%
    07:00 +23°C° 0 mm 0 mps 701 mmHg 80%
    08:00 +25°C° 0 mm 0 mps 701 mmHg 75%
    09:00 +26°C° 0 mm 0 mps 701 mmHg 71%
    10:00 +29°C° 0 mm 1 mps 701 mmHg 66%
    11:00 +31°C° 0 mm 1 mps 702 mmHg 61%
    12:00 +31°C° 0.1 mm 1 mps 701 mmHg 63%
    13:00 +30°C° 0.1 mm 1 mps 700 mmHg 65%
    14:00 +30°C° 0.1 mm 2 mps 699 mmHg 67%
    15:00 +29°C° 0.2 mm 1 mps 699 mmHg 70%
    16:00 +29°C° 0.2 mm 1 mps 699 mmHg 73%
    17:00 +28°C° 0.2 mm 1 mps 699 mmHg 76%
    18:00 +27°C° 0.1 mm 1 mps 699 mmHg 81%
    19:00 +26°C° 0.1 mm 1 mps 699 mmHg 86%
    20:00 +24°C° 0.1 mm 1 mps 699 mmHg 91%
    21:00 +24°C° 0 mm 1 mps 700 mmHg 91%
    22:00 +24°C° 0 mm 1 mps 700 mmHg 90%
    23:00 +23°C° 0 mm 1 mps 700 mmHg 90%
    Show more